User: anonymous   Login
Location: Blienschwiller
(48.3416°N, 7.4182°E)
Time: 18:07:14
(UTC+00:00)
Language:

BREEZE-M DEB (TANK) - Orbit

View from above orbital plane
View from above orbital plane
View from above satellite
View from above satellite

Ground track
Ground track

The orbit data is extracted from the following two-line orbital elements,

1 37845U 11059C   20151.18489482 +.00000713 +00000-0 +13990-3 0  9992
2 37845 049.7084 052.2170 4598292 123.2386 289.4452 06.29149474195838
Epoch (UTC): 30 May 2020 04:26:14
Eccentricity: 0.4598292
inclination: 49.7084°
perigee height: 317 km
apogee height: 11716 km
right ascension of ascending node: 52.2170°
argument of perigee: 123.2386°
revolutions per day: 6.29149474
mean anomaly at epoch: 289.4452°
orbit number at epoch: 19583

The dashed part of the orbit path shows where the satellite is in the earth's shadow,  

DLR